Terug naar catalogus

STARLINK-36144

ActiefCommunicatieVLEO
NORAD 67829·PAYLOAD·🇺🇸 United States

Gelanceerd Feb 16, 2026 vanaf Vandenberg Space Force Base

Loading…

Volgende Passages (komende 24 uur)

TLE

VersSource: CelesTrak SupGP

Epoch: Sep 15, 2026, 04:10 UTC

1 67829C 26033J   26258.17409722 -.00033069  00000+0 -11975-2 0  2586
2 67829  43.0012 277.1838 0001463 267.6651 340.3347 15.27601567    12

Volg STARLINK-36144 in realtime met AllMySat

Download on the App Store